Location: New Canada
(47.1017°N, 68.5042°W)
Time: 22:21:36
(UTC+00:00)

RS-44 - Pass Details

Date: 05 April 2023
Orbit: 1175 x 1510 km, 82.5° (Epoch: 02 June)

Event Time Altitude Azimuth Distance (km) Brightness Sun altitude
Rises 03:25:26 0° 355° (N) 4,406 ? -34.6°
Reaches altitude 10° 03:29:04 10° 11° (N) 3,485 ? -34.9°
Maximum altitude 03:35:20 22° 60° (ENE) 2,721 ? -35.2°
Enters shadow 03:37:26 21° 79° (E) 2,845 ? -35.3°
